Watsonville, CA

7:18 AM PDT on July 24, 2016 (GMT -0700)
Watsonville Municipal

Weather History for KWVI - September, 2012

Change the Weather History Date:

Friday, September 14, 2012

  Actual Average Record
Temperature  
Mean Temperature 62 °F 64 °F  
Max Temperature 70 °F 75 °F 85 °F (2004)
Min Temperature 53 °F 52 °F 45 °F (2006)
Degree Days  
Heating Degree Days 3    
Month to date heating degree days 48  
Since 1 July heating degree days 284  
Cooling Degree Days 0    
Month to date cooling degree days 0  
Year to date cooling degree days 19  
Growing Degree Days 12 (Base 50)    
Moisture  
Dew Point 54 °F    
Average Humidity 75    
Maximum Humidity 93    
Minimum Humidity 57    
Precipitation  
Precipitation 0.00 in - 0.01 in (1998)
Month to date precipitation T  
Year to date precipitation 11.98  
Since 1 July precipitation 0.05  
Sea Level Pressure  
Sea Level Pressure 30.08 in    
Wind  
Wind Speed 3 mph (SSE)    
Max Wind Speed 10 mph    
Max Gust Speed 48 mph    
Visibility 6 miles    
Events      
T = Trace of Precipitation, MM = Missing Value Source: NWS Daily Summary

Daily Weather History Graph

Daily Weather History Graph

Search for Another Location

Airport or City:

Trip Planner

Search our weather history database for the weather conditions in past years. The results will help you decide how hot, cold, wet, or windy it might be!

Date:

Astronomy

Sep. 14, 2012 Rise Set
Actual Time 6:49 AM PDT 7:15 PM PDT
Civil Twilight 6:22 AM PDT 7:41 PM PDT
Nautical Twilight 5:52 AM PDT 8:11 PM PDT
Astronomical Twilight 5:21 AM PDT 8:42 PM PDT
Moon 5:20 AM PDT (9/14) 6:14 PM PDT (9/14)
Length of Visible Light 13h 18m
Length of Day
12h 26m
Waning Crescent, 2% of the Moon is Illuminated
Sep 14
Waning Crescent
Sep 15
New
Sep 22
First Quarter
Sep 29
Full
Oct 8
Last Quarter

Hourly Weather History & Observations

Time (PDT) Temp. Dew Point Humidity Pressure Visibility Wind Dir Wind Speed Gust Speed Precip Events Conditions
12:53 AM 55.9 °F 54.0 °F 93% 30.08 in 7.0 mi Calm Calm - N/A   Overcast
1:53 AM 55.9 °F 54.0 °F 93% 30.08 in 6.0 mi Calm Calm - N/A   Overcast
2:53 AM 55.9 °F 54.0 °F 93% 30.07 in 4.0 mi Calm Calm - N/A   Overcast
3:49 AM 55.4 °F 53.6 °F 94% 30.07 in 2.5 mi Calm Calm - N/A   Overcast
3:53 AM 55.0 °F 54.0 °F 96% 30.07 in 4.0 mi Calm Calm - N/A   Overcast
4:09 AM 55.4 °F 53.6 °F 94% 30.07 in 1.8 mi Calm Calm - N/A   Overcast
4:18 AM 55.4 °F 53.6 °F 94% 30.08 in 1.2 mi Calm Calm - N/A   Overcast
4:28 AM 55.4 °F 53.6 °F 94% 30.08 in 1.8 mi West 3.5 mph - N/A   Overcast
4:36 AM 55.4 °F 53.6 °F 94% 30.08 in 3.0 mi Calm Calm - N/A   Overcast
4:45 AM 55.4 °F 53.6 °F 94% 30.08 in 2.0 mi Calm Calm - N/A   Overcast
4:53 AM 55.0 °F 54.0 °F 96% 30.08 in 1.5 mi Calm Calm - N/A   Overcast
5:09 AM 55.4 °F 53.6 °F 94% 30.08 in 2.0 mi Calm Calm - N/A   Overcast
5:29 AM 55.4 °F 53.6 °F 94% 30.07 in 2.5 mi Calm Calm - N/A   Mist
5:49 AM 55.4 °F 53.6 °F 94% 30.07 in 2.0 mi Calm Calm - N/A   Overcast
6:53 AM 55.0 °F 54.0 °F 96% 30.08 in 3.0 mi NNE 3.5 mph - N/A   Overcast
7:05 AM 55.4 °F 53.6 °F 94% 30.09 in 2.5 mi Calm Calm - N/A   Overcast
7:17 AM 55.4 °F 53.6 °F 94% 30.09 in 1.2 mi Calm Calm - N/A   Overcast
7:27 AM 55.4 °F 53.6 °F 94% 30.09 in 0.8 mi Calm Calm - N/A   Overcast
7:46 AM 55.4 °F 53.6 °F 94% 30.09 in 1.5 mi Calm Calm - N/A   Overcast
7:53 AM 55.0 °F 54.0 °F 96% 30.09 in 2.0 mi Calm Calm - N/A   Overcast
8:04 AM 55.4 °F 53.6 °F 94% 30.09 in 3.0 mi ESE 3.5 mph - N/A   Overcast
8:53 AM 57.0 °F 54.0 °F 89% 30.11 in 5.0 mi Calm Calm - N/A   Overcast
9:53 AM 57.9 °F 54.0 °F 87% 30.11 in 6.0 mi Calm Calm - N/A   Overcast
10:04 AM 57.2 °F 53.6 °F 88% 30.11 in 6.0 mi Calm Calm - N/A   Overcast
10:53 AM 63.0 °F 55.0 °F 75% 30.10 in 9.0 mi Calm Calm - N/A   Mostly Cloudy
11:02 AM 64.4 °F 55.4 °F 73% 30.10 in 10.0 mi Calm Calm - N/A   Scattered Clouds
11:53 AM 68.0 °F 55.9 °F 65% 30.09 in 10.0 mi Variable 4.6 mph - N/A   Clear
12:53 PM 68.0 °F 55.0 °F 63% 30.09 in 10.0 mi SW 8.1 mph - N/A   Clear
1:53 PM 69.1 °F 54.0 °F 58% 30.06 in 10.0 mi SSW 8.1 mph - N/A   Clear
2:53 PM 69.1 °F 54.0 °F 58% 30.05 in 10.0 mi South 8.1 mph - N/A   Clear
3:53 PM 69.1 °F 54.0 °F 58% 30.04 in 10.0 mi South 6.9 mph - N/A   Clear
5:53 PM 61.0 °F 53.1 °F 75% 30.04 in 10.0 mi SE 9.2 mph - N/A   Clear
6:53 PM 57.9 °F 52.0 °F 81% 30.04 in 10.0 mi SE 6.9 mph - N/A   Clear
7:53 PM 55.9 °F 52.0 °F 87% 30.05 in 10.0 mi ESE 6.9 mph - N/A   Clear
8:53 PM 55.9 °F 52.0 °F 87% 30.05 in 10.0 mi ESE 4.6 mph - N/A   Clear
9:53 PM 55.9 °F 52.0 °F 87% 30.06 in 10.0 mi Calm Calm - N/A   Clear
10:53 PM 55.0 °F 52.0 °F 89% 30.07 in 10.0 mi Calm Calm - N/A   Clear
11:53 PM 55.0 °F 51.1 °F 86% 30.06 in 10.0 mi Calm Calm - N/A   Clear